When you browse on this site, cookies collect data to enhance your experience and personalize the content and advertising you see.
Visit our Privacy Policy to learn more. By continuing to use the site, you agree to this use of cookies and data.
  • In Lithuania
  • List of Countries
  • For 7 days
  • Water Temperature
  • Weather Map
  • Weather Widgets
  • user-avatar
    Login

    Hourly Weather Mendoza

    Today, 5 April, Sunday

    Time Temperature Precipitation Wind Pressure Humidity
    00:00 +20°C° 0 mm 1 mps 694 mmHg 61%
    01:00 +19°C° 0 mm 1 mps 694 mmHg 63%
    02:00 +19°C° 0 mm 1 mps 693 mmHg 64%
    03:00 +19°C° 0 mm 1 mps 693 mmHg 66%
    04:00 +18°C° 0 mm 1 mps 693 mmHg 68%
    05:00 +18°C° 0 mm 2 mps 693 mmHg 66%
    06:00 +18°C° 0 mm 2 mps 694 mmHg 63%
    07:00 +19°C° 0 mm 2 mps 694 mmHg 61%
    08:00 +20°C° 0 mm 2 mps 695 mmHg 57%
    09:00 +21°C° 0 mm 3 mps 695 mmHg 54%
    10:00 +24°C° 0 mm 3 mps 696 mmHg 50%
    11:00 +25°C° 0 mm 3 mps 696 mmHg 46%
    12:00 +26°C° 0 mm 3 mps 696 mmHg 42%
    13:00 +27°C° 0 mm 3 mps 696 mmHg 37%
    14:00 +27°C° 0 mm 3 mps 696 mmHg 37%
    15:00 +28°C° 0 mm 4 mps 696 mmHg 36%
    16:00 +28°C° 0 mm 4 mps 696 mmHg 36%
    17:00 +26°C° 0 mm 3 mps 697 mmHg 41%
    18:00 +25°C° 0 mm 3 mps 697 mmHg 46%
    19:00 +23°C° 0 mm 2 mps 698 mmHg 52%
    20:00 +23°C° 0 mm 2 mps 699 mmHg 54%
    21:00 +21°C° 0 mm 2 mps 699 mmHg 57%
    22:00 +21°C° 0 mm 2 mps 700 mmHg 59%
    23:00 +21°C° 0.1 mm 3 mps 700 mmHg 53%

    Tomorrow, 6 April, Monday

    Time Temperature Precipitation Wind Pressure Humidity
    00:00 +20°C° 0.1 mm 5 mps 701 mmHg 47%
    01:00 +20°C° 0.1 mm 6 mps 701 mmHg 41%
    02:00 +19°C° 0.1 mm 6 mps 702 mmHg 40%
    03:00 +17°C° 0.1 mm 5 mps 702 mmHg 39%
    04:00 +16°C° 0.1 mm 5 mps 702 mmHg 38%
    05:00 +15°C° 0 mm 5 mps 703 mmHg 39%
    06:00 +15°C° 0 mm 5 mps 703 mmHg 40%
    07:00 +14°C° 0 mm 4 mps 703 mmHg 40%
    08:00 +15°C° 0 mm 4 mps 703 mmHg 39%
    09:00 +17°C° 0 mm 4 mps 703 mmHg 38%
    10:00 +17°C° 0 mm 3 mps 703 mmHg 37%
    11:00 +18°C° 0 mm 3 mps 703 mmHg 36%
    12:00 +19°C° 0 mm 3 mps 702 mmHg 34%
    13:00 +20°C° 0 mm 3 mps 702 mmHg 32%
    14:00 +20°C° 0 mm 3 mps 702 mmHg 32%
    15:00 +20°C° 0 mm 3 mps 701 mmHg 31%
    16:00 +20°C° 0 mm 3 mps 701 mmHg 30%
    17:00 +19°C° 0 mm 3 mps 701 mmHg 32%
    18:00 +18°C° 0 mm 3 mps 702 mmHg 34%
    19:00 +17°C° 0 mm 2 mps 702 mmHg 36%
    20:00 +16°C° 0 mm 2 mps 702 mmHg 37%
    21:00 +15°C° 0 mm 1 mps 702 mmHg 39%
    22:00 +15°C° 0 mm 1 mps 702 mmHg 40%
    23:00 +14°C° 0 mm 1 mps 701 mmHg 41%

    Day after tomorrow, 7 April, Tuesday

    Time Temperature Precipitation Wind Pressure Humidity
    00:00 +14°C° 0 mm 1 mps 701 mmHg 41%
    01:00 +14°C° 0 mm 1 mps 701 mmHg 42%
    02:00 +13°C° 0 mm 1 mps 700 mmHg 42%
    03:00 +13°C° 0 mm 1 mps 700 mmHg 43%
    04:00 +13°C° 0 mm 1 mps 700 mmHg 44%
    05:00 +13°C° 0 mm 1 mps 700 mmHg 42%
    06:00 +14°C° 0 mm 1 mps 701 mmHg 40%
    07:00 +15°C° 0 mm 1 mps 701 mmHg 37%
    08:00 +18°C° 0 mm 1 mps 701 mmHg 35%
    09:00 +18°C° 0 mm 2 mps 701 mmHg 32%
    10:00 +20°C° 0 mm 3 mps 701 mmHg 30%
    11:00 +21°C° 0 mm 3 mps 701 mmHg 29%
    12:00 +22°C° 0 mm 3 mps 700 mmHg 29%
    13:00 +24°C° 0 mm 3 mps 700 mmHg 28%
    14:00 +24°C° 0 mm 2 mps 700 mmHg 29%
    15:00 +24°C° 0 mm 2 mps 700 mmHg 30%
    16:00 +24°C° 0 mm 1 mps 699 mmHg 31%
    17:00 +23°C° 0 mm 1 mps 700 mmHg 33%
    18:00 +22°C° 0 mm 1 mps 700 mmHg 35%
    19:00 +21°C° 0 mm 1 mps 700 mmHg 37%
    20:00 +21°C° 0 mm 1 mps 700 mmHg 39%
    21:00 +20°C° 0 mm 2 mps 701 mmHg 40%
    22:00 +19°C° 0 mm 2 mps 701 mmHg 42%
    23:00 +19°C° 0 mm 2 mps 700 mmHg 45%

    8 April, Wednesday

    Time Temperature Precipitation Wind Pressure Humidity
    00:00 +19°C° 0 mm 1 mps 700 mmHg 47%
    01:00 +19°C° 0 mm 1 mps 700 mmHg 50%
    02:00 +18°C° 0 mm 1 mps 700 mmHg 51%
    03:00 +18°C° 0 mm 1 mps 700 mmHg 53%
    04:00 +16°C° 0 mm 1 mps 700 mmHg 54%
    05:00 +17°C° 0 mm 2 mps 700 mmHg 52%
    06:00 +17°C° 0 mm 2 mps 700 mmHg 51%
    07:00 +18°C° 0 mm 2 mps 701 mmHg 49%
    08:00 +19°C° 0 mm 2 mps 701 mmHg 46%
    09:00 +21°C° 0 mm 2 mps 701 mmHg 42%
    10:00 +23°C° 0 mm 2 mps 701 mmHg 39%
    11:00 +24°C° 0 mm 2 mps 701 mmHg 37%
    12:00 +25°C° 0 mm 2 mps 700 mmHg 35%
    13:00 +26°C° 0 mm 2 mps 700 mmHg 33%
    14:00 +26°C° 0 mm 2 mps 700 mmHg 33%
    15:00 +26°C° 0 mm 2 mps 700 mmHg 33%
    16:00 +26°C° 0 mm 2 mps 700 mmHg 33%
    17:00 +25°C° 0 mm 3 mps 700 mmHg 36%
    18:00 +24°C° 0 mm 3 mps 700 mmHg 40%
    19:00 +22°C° 0 mm 3 mps 701 mmHg 43%
    20:00 +21°C° 0 mm 3 mps 701 mmHg 45%
    21:00 +20°C° 0 mm 3 mps 700 mmHg 47%
    22:00 +20°C° 0 mm 3 mps 700 mmHg 50%
    23:00 +19°C° 0 mm 2 mps 700 mmHg 51%

    9 April, Thursday

    Time Temperature Precipitation Wind Pressure Humidity
    00:00 +19°C° 0 mm 2 mps 700 mmHg 53%
    01:00 +19°C° 0 mm 1 mps 700 mmHg 54%
    02:00 +18°C° 0 mm 1 mps 700 mmHg 56%
    03:00 +18°C° 0 mm 1 mps 699 mmHg 58%
    04:00 +16°C° 0 mm 1 mps 699 mmHg 60%
    05:00 +18°C° 0 mm 1 mps 700 mmHg 57%
    06:00 +18°C° 0 mm 1 mps 700 mmHg 55%
    07:00 +18°C° 0 mm 2 mps 700 mmHg 52%
    08:00 +19°C° 0 mm 2 mps 700 mmHg 49%
    09:00 +20°C° 0 mm 2 mps 701 mmHg 45%
    10:00 +23°C° 0 mm 2 mps 701 mmHg 41%
    11:00 +24°C° 0 mm 2 mps 700 mmHg 39%
    12:00 +25°C° 0 mm 2 mps 700 mmHg 37%
    13:00 +26°C° 0 mm 3 mps 700 mmHg 35%
    14:00 +26°C° 0 mm 2 mps 700 mmHg 35%
    15:00 +26°C° 0 mm 2 mps 700 mmHg 35%
    16:00 +27°C° 0 mm 2 mps 699 mmHg 35%
    17:00 +25°C° 0 mm 2 mps 700 mmHg 39%
    18:00 +24°C° 0 mm 2 mps 700 mmHg 42%
    19:00 +21°C° 0 mm 2 mps 700 mmHg 46%
    20:00 +21°C° 0 mm 2 mps 700 mmHg 48%
    21:00 +20°C° 0 mm 3 mps 700 mmHg 50%
    22:00 +19°C° 0 mm 3 mps 700 mmHg 52%
    23:00 +19°C° 0 mm 2 mps 700 mmHg 54%

    10 April, Friday

    Time Temperature Precipitation Wind Pressure Humidity
    00:00 +18°C° 0 mm 2 mps 699 mmHg 56%
    01:00 +18°C° 0 mm 1 mps 699 mmHg 58%
    02:00 +18°C° 0 mm 1 mps 699 mmHg 59%
    03:00 +16°C° 0 mm 1 mps 699 mmHg 60%
    04:00 +16°C° 0 mm 1 mps 698 mmHg 61%
    05:00 +18°C° 0 mm 1 mps 699 mmHg 58%
    06:00 +18°C° 0 mm 1 mps 699 mmHg 56%
    07:00 +18°C° 0 mm 2 mps 699 mmHg 53%
    08:00 +20°C° 0 mm 2 mps 699 mmHg 49%
    09:00 +21°C° 0 mm 2 mps 699 mmHg 45%
    10:00 +24°C° 0 mm 2 mps 699 mmHg 40%
    11:00 +25°C° 0 mm 3 mps 699 mmHg 38%
    12:00 +26°C° 0 mm 3 mps 698 mmHg 36%
    13:00 +28°C° 0 mm 4 mps 698 mmHg 33%
    14:00 +28°C° 0 mm 4 mps 698 mmHg 34%
    15:00 +28°C° 0 mm 4 mps 697 mmHg 34%
    16:00 +28°C° 0 mm 4 mps 697 mmHg 34%
    17:00 +26°C° 0 mm 4 mps 697 mmHg 38%
    18:00 +23°C° 0 mm 4 mps 697 mmHg 42%
    19:00 +22°C° 0 mm 3 mps 697 mmHg 46%
    20:00 +21°C° 0 mm 3 mps 697 mmHg 49%
    21:00 +20°C° 0 mm 2 mps 697 mmHg 52%
    22:00 +20°C° 0 mm 1 mps 697 mmHg 55%
    23:00 +20°C° 0 mm 1 mps 697 mmHg 56%
    Show more